Time,TemperatureF,DewpointF,PressureIn,WindDirection,WindDirectionDegrees,WindSpeedMPH,WindSpeedGustMPH,Humidity,HourlyPrecipIn,Conditions,Clouds,dailyrainin,SoftwareType,DateUTC
2013-02-01 00:00:00,42.5,38.9,30.19,North,32767,0.0,0.0,87,0.00,,,0.00,Wunderground v.1.13,2013-02-01 08:00:00,
2013-02-01 00:05:00,42.5,38.9,30.19,North,32767,0.0,0.0,87,0.00,,,0.00,Wunderground v.1.13,2013-02-01 08:05:00,
2013-02-01 00:15:00,42.4,38.8,30.19,North,32767,0.0,0.0,87,0.00,,,0.00,Wunderground v.1.13,2013-02-01 08:15:00,
2013-02-01 00:20:00,42.4,38.8,30.19,North,360,0.0,0.0,87,0.00,,,0.00,Wunderground v.1.13,2013-02-01 08:20:00,
2013-02-01 00:25:00,42.3,38.7,30.18,North,32767,0.0,0.0,87,0.00,,,0.00,Wunderground v.1.13,2013-02-01 08:25:00,
2013-02-01 00:30:00,42.3,38.7,30.18,North,32767,0.0,0.0,87,0.00,,,0.00,Wunderground v.1.13,2013-02-01 08:30:00,
2013-02-01 00:35:00,42.3,38.7,30.18,North,32767,0.0,0.0,87,0.00,,,0.00,Wunderground v.1.13,2013-02-01 08:35:00,
2013-02-01 00:45:00,42.2,38.6,30.18,North,360,0.0,0.0,87,0.00,,,0.00,Wunderground v.1.13,2013-02-01 08:45:00,
2013-02-01 00:50:00,42.2,38.9,30.19,North,32767,0.0,0.0,88,0.00,,,0.00,Wunderground v.1.13,2013-02-01 08:50:00,
2013-02-01 00:55:00,42.2,38.9,30.18,North,32767,0.0,0.0,88,0.00,,,0.00,Wunderground v.1.13,2013-02-01 08:55:00,
2013-02-01 01:05:00,42.2,38.9,30.18,North,32767,0.0,0.0,88,0.00,,,0.00,Wunderground v.1.13,2013-02-01 09:05:00,
2013-02-01 01:15:00,42.2,38.9,30.18,North,360,0.0,0.0,88,0.00,,,0.00,Wunderground v.1.13,2013-02-01 09:15:00,
2013-02-01 01:20:00,42.1,38.8,30.18,North,32767,0.0,0.0,88,0.00,,,0.00,Wunderground v.1.13,2013-02-01 09:20:00,
2013-02-01 01:25:00,42.0,38.7,30.18,North,32767,0.0,0.0,88,0.00,,,0.00,Wunderground v.1.13,2013-02-01 09:25:00,
2013-02-01 01:30:00,42.0,38.7,30.18,North,360,0.0,0.0,88,0.00,,,0.00,Wunderground v.1.13,2013-02-01 09:30:00,
2013-02-01 01:35:00,41.9,38.6,30.18,North,360,0.0,0.0,88,0.00,,,0.00,Wunderground v.1.13,2013-02-01 09:35:00,
2013-02-01 01:45:00,41.6,38.3,30.18,North,32767,0.0,0.0,88,0.00,,,0.00,Wunderground v.1.13,2013-02-01 09:45:00,
2013-02-01 01:50:00,41.5,38.2,30.18,North,32767,0.0,0.0,88,0.00,,,0.00,Wunderground v.1.13,2013-02-01 09:50:00,
2013-02-01 01:55:00,41.4,38.1,30.18,North,360,0.0,0.0,88,0.00,,,0.00,Wunderground v.1.13,2013-02-01 09:55:00,
2013-02-01 02:00:00,41.3,38.0,30.18,North,32767,0.0,0.0,88,0.00,,,0.00,Wunderground v.1.13,2013-02-01 10:00:00,
2013-02-01 02:06:00,41.2,37.9,30.18,North,32767,0.0,0.0,88,0.00,,,0.00,Wunderground v.1.13,2013-02-01 10:06:00,
2013-02-01 02:15:00,41.0,37.7,30.18,North,32767,0.0,0.0,88,0.00,,,0.00,Wunderground v.1.13,2013-02-01 10:15:00,
2013-02-01 02:20:00,40.9,37.6,30.18,North,360,0.0,0.0,88,0.00,,,0.00,Wunderground v.1.13,2013-02-01 10:20:00,
2013-02-01 02:25:00,40.7,37.4,30.18,North,32767,0.0,0.0,88,0.00,,,0.00,Wunderground v.1.13,2013-02-01 10:25:00,
2013-02-01 02:30:00,40.6,37.3,30.18,North,360,0.0,0.0,88,0.00,,,0.00,Wunderground v.1.13,2013-02-01 10:30:00,
2013-02-01 02:35:00,40.5,37.2,30.18,North,32767,0.0,0.0,88,0.00,,,0.00,Wunderground v.1.13,2013-02-01 10:35:00,
2013-02-01 02:40:00,40.5,37.2,30.18,North,32767,0.0,0.0,88,0.00,,,0.00,Wunderground v.1.13,2013-02-01 10:40:00,
2013-02-01 02:50:00,40.3,37.3,30.18,North,32767,0.0,0.0,89,0.00,,,0.00,Wunderground v.1.13,2013-02-01 10:50:00,
2013-02-01 02:55:00,40.2,36.9,30.18,North,32767,0.0,0.0,88,0.00,,,0.00,Wunderground v.1.13,2013-02-01 10:55:00,
2013-02-01 03:00:00,40.2,36.9,30.18,North,32767,0.0,0.0,88,0.00,,,0.00,Wunderground v.1.13,2013-02-01 11:00:00,
2013-02-01 03:06:00,40.1,36.8,30.18,North,32767,0.0,0.0,88,0.00,,,0.00,Wunderground v.1.13,2013-02-01 11:06:00,
2013-02-01 03:15:00,39.9,36.9,30.17,North,360,0.0,0.0,89,0.00,,,0.00,Wunderground v.1.13,2013-02-01 11:15:00,
2013-02-01 03:25:00,39.8,36.8,30.18,North,32767,0.0,0.0,89,0.00,,,0.00,Wunderground v.1.13,2013-02-01 11:25:00,
2013-02-01 03:30:00,39.8,36.8,30.18,North,32767,0.0,0.0,89,0.00,,,0.00,Wunderground v.1.13,2013-02-01 11:30:00,
2013-02-01 03:35:00,39.9,36.9,30.18,North,32767,0.0,0.0,89,0.00,,,0.00,Wunderground v.1.13,2013-02-01 11:35:00,
2013-02-01 03:40:00,40.0,37.0,30.18,North,32767,0.0,0.0,89,0.00,,,0.00,Wunderground v.1.13,2013-02-01 11:40:00,
2013-02-01 03:50:00,40.0,37.0,30.18,North,360,0.0,0.0,89,0.00,,,0.00,Wunderground v.1.13,2013-02-01 11:50:00,
2013-02-01 03:55:00,39.8,36.8,30.18,North,360,0.0,0.0,89,0.00,,,0.00,Wunderground v.1.13,2013-02-01 11:55:00,
2013-02-01 04:00:00,39.8,36.8,30.18,North,32767,0.0,0.0,89,0.00,,,0.00,Wunderground v.1.13,2013-02-01 12:00:00,
2013-02-01 04:05:00,39.7,36.7,30.18,North,360,0.0,0.0,89,0.00,,,0.00,Wunderground v.1.13,2013-02-01 12:05:00,
2013-02-01 04:15:00,39.6,36.6,30.18,North,360,0.0,0.0,89,0.00,,,0.00,Wunderground v.1.13,2013-02-01 12:15:00,
2013-02-01 04:20:00,39.6,36.6,30.18,North,32767,0.0,0.0,89,0.00,,,0.00,Wunderground v.1.13,2013-02-01 12:20:00,
2013-02-01 04:25:00,39.5,36.5,30.18,North,360,0.0,0.0,89,0.00,,,0.00,Wunderground v.1.13,2013-02-01 12:25:00,
2013-02-01 04:30:00,39.4,36.4,30.18,North,32767,0.0,0.0,89,0.00,,,0.00,Wunderground v.1.13,2013-02-01 12:30:00,
2013-02-01 04:35:00,39.3,36.3,30.18,North,32767,0.0,0.0,89,0.00,,,0.00,Wunderground v.1.13,2013-02-01 12:35:00,
2013-02-01 04:45:00,39.1,36.1,30.18,North,32767,0.0,0.0,89,0.00,,,0.00,Wunderground v.1.13,2013-02-01 12:45:00,
2013-02-01 04:50:00,39.0,36.0,30.18,North,32767,0.0,0.0,89,0.00,,,0.00,Wunderground v.1.13,2013-02-01 12:50:00,
2013-02-01 04:55:00,38.9,35.9,30.18,North,32767,0.0,0.0,89,0.00,,,0.00,Wunderground v.1.13,2013-02-01 12:55:00,
2013-02-01 05:00:00,38.8,35.8,30.18,North,32767,0.0,0.0,89,0.00,,,0.00,Wunderground v.1.13,2013-02-01 13:00:00,
2013-02-01 05:06:00,38.7,35.7,30.18,North,32767,0.0,0.0,89,0.00,,,0.00,Wunderground v.1.13,2013-02-01 13:06:00,
2013-02-01 05:15:00,38.6,35.6,30.18,North,32767,0.0,0.0,89,0.00,,,0.00,Wunderground v.1.13,2013-02-01 13:15:00,
2013-02-01 05:25:00,38.6,35.6,30.18,North,360,0.0,0.0,89,0.00,,,0.00,Wunderground v.1.13,2013-02-01 13:25:00,
2013-02-01 05:30:00,38.7,35.7,30.18,North,32767,0.0,0.0,89,0.00,,,0.00,Wunderground v.1.13,2013-02-01 13:30:00,
2013-02-01 05:35:00,38.7,35.7,30.18,North,360,0.0,0.0,89,0.00,,,0.00,Wunderground v.1.13,2013-02-01 13:35:00,
2013-02-01 05:40:00,38.6,35.6,30.18,North,360,0.0,0.0,89,0.00,,,0.00,Wunderground v.1.13,2013-02-01 13:40:00,
2013-02-01 05:50:00,38.6,35.6,30.18,North,360,0.0,0.0,89,0.00,,,0.00,Wunderground v.1.13,2013-02-01 13:50:00,
2013-02-01 05:55:00,38.6,35.6,30.18,North,32767,0.0,0.0,89,0.00,,,0.00,Wunderground v.1.13,2013-02-01 13:55:00,
2013-02-01 06:00:00,38.7,35.7,30.18,North,32767,0.0,0.0,89,0.00,,,0.00,Wunderground v.1.13,2013-02-01 14:00:00,
2013-02-01 06:05:00,38.6,35.6,30.18,North,32767,0.0,0.0,89,0.00,,,0.00,Wunderground v.1.13,2013-02-01 14:05:00,
2013-02-01 06:15:00,38.7,35.7,30.18,North,32767,0.0,0.0,89,0.00,,,0.00,Wunderground v.1.13,2013-02-01 14:15:00,
2013-02-01 06:20:00,38.7,35.7,30.18,North,32767,0.0,0.0,89,0.00,,,0.00,Wunderground v.1.13,2013-02-01 14:20:00,
2013-02-01 06:30:00,38.6,35.6,30.18,North,32767,0.0,0.0,89,0.00,,,0.00,Wunderground v.1.13,2013-02-01 14:30:00,
2013-02-01 06:35:00,38.6,35.6,30.18,North,32767,0.0,0.0,89,0.00,,,0.00,Wunderground v.1.13,2013-02-01 14:35:00,
2013-02-01 06:40:00,38.5,35.5,30.18,North,360,0.0,0.0,89,0.00,,,0.00,Wunderground v.1.13,2013-02-01 14:40:00,
2013-02-01 06:45:00,38.4,35.4,30.18,North,32767,0.0,0.0,89,0.00,,,0.00,Wunderground v.1.13,2013-02-01 14:45:00,
2013-02-01 06:50:00,38.4,35.7,30.19,North,360,0.0,0.0,90,0.00,,,0.00,Wunderground v.1.13,2013-02-01 14:50:00,
2013-02-01 07:00:00,38.3,35.6,30.18,North,32767,0.0,0.0,90,0.00,,,0.00,Wunderground v.1.13,2013-02-01 15:00:00,
2013-02-01 07:05:00,38.3,35.6,30.19,North,360,0.0,0.0,90,0.00,,,0.00,Wunderground v.1.13,2013-02-01 15:05:00,
2013-02-01 07:15:00,38.2,35.5,30.19,North,360,0.0,0.0,90,0.00,,,0.00,Wunderground v.1.13,2013-02-01 15:15:00,
2013-02-01 07:20:00,38.2,35.5,30.19,North,360,0.0,0.0,90,0.00,,,0.00,Wunderground v.1.13,2013-02-01 15:20:00,
2013-02-01 07:25:00,38.2,35.5,30.19,North,360,0.0,0.0,90,0.00,,,0.00,Wunderground v.1.13,2013-02-01 15:25:00,
2013-02-01 07:35:00,38.3,35.6,30.19,North,360,0.0,0.0,90,0.00,,,0.00,Wunderground v.1.13,2013-02-01 15:35:00,
2013-02-01 07:40:00,38.3,35.6,30.19,North,32767,0.0,0.0,90,0.00,,,0.00,Wunderground v.1.13,2013-02-01 15:40:00,
2013-02-01 07:45:00,38.4,35.7,30.19,North,32767,0.0,0.0,90,0.00,,,0.00,Wunderground v.1.13,2013-02-01 15:45:00,
2013-02-01 07:50:00,38.4,35.7,30.19,North,360,0.0,0.0,90,0.00,,,0.00,Wunderground v.1.13,2013-02-01 15:50:00,
2013-02-01 08:00:00,38.7,36.0,30.19,North,360,0.0,0.0,90,0.00,,,0.00,Wunderground v.1.13,2013-02-01 16:00:00,
2013-02-01 08:05:00,38.9,36.2,30.19,North,32767,0.0,0.0,90,0.00,,,0.00,Wunderground v.1.13,2013-02-01 16:05:00,
2013-02-01 08:15:00,39.3,36.6,30.19,North,32767,0.0,0.0,90,0.00,,,0.00,Wunderground v.1.13,2013-02-01 16:15:00,
2013-02-01 08:20:00,39.5,36.8,30.19,North,32767,0.0,0.0,90,0.00,,,0.00,Wunderground v.1.13,2013-02-01 16:20:00,
2013-02-01 08:25:00,39.7,37.0,30.19,North,360,0.0,0.0,90,0.00,,,0.00,Wunderground v.1.13,2013-02-01 16:25:00,
2013-02-01 08:35:00,40.8,38.4,30.20,North,32767,0.0,0.0,91,0.00,,,0.00,Wunderground v.1.13,2013-02-01 16:35:00,
2013-02-01 08:40:00,41.2,38.5,30.20,North,32767,0.0,0.0,90,0.00,,,0.00,Wunderground v.1.13,2013-02-01 16:40:00,
2013-02-01 08:45:00,41.9,39.5,30.20,North,32767,0.0,0.0,91,0.00,,,0.00,Wunderground v.1.13,2013-02-01 16:45:00,
2013-02-01 08:50:00,42.4,40.0,30.20,North,32767,0.0,0.0,91,0.00,,,0.00,Wunderground v.1.13,2013-02-01 16:50:00,
2013-02-01 08:55:00,43.3,40.8,30.20,North,32767,0.0,0.0,91,0.00,,,0.00,Wunderground v.1.13,2013-02-01 16:55:00,
2013-02-01 09:05:00,46.0,43.5,30.20,North,32767,0.0,0.0,91,0.00,,,0.00,Wunderground v.1.13,2013-02-01 17:05:00,
2013-02-01 09:15:00,48.6,46.4,30.19,North,32767,0.0,0.0,92,0.00,,,0.00,Wunderground v.1.13,2013-02-01 17:15:00,
2013-02-01 09:20:00,49.4,47.2,30.19,North,360,0.0,0.0,92,0.00,,,0.00,Wunderground v.1.13,2013-02-01 17:20:00,
2013-02-01 09:25:00,49.2,46.7,30.19,North,32767,0.0,0.0,91,0.00,,,0.00,Wunderground v.1.13,2013-02-01 17:25:00,
2013-02-01 09:30:00,48.8,46.0,30.18,North,32767,0.0,0.0,90,0.00,,,0.00,Wunderground v.1.13,2013-02-01 17:30:00,
2013-02-01 09:40:00,49.2,46.1,30.18,North,32767,0.0,0.0,89,0.00,,,0.00,Wunderground v.1.13,2013-02-01 17:40:00,
2013-02-01 09:45:00,50.0,46.9,30.19,North,32767,0.0,0.0,89,0.00,,,0.00,Wunderground v.1.13,2013-02-01 17:45:00,
2013-02-01 09:50:00,51.4,48.0,30.19,North,32767,0.0,0.0,88,0.00,,,0.00,Wunderground v.1.13,2013-02-01 17:50:00,
2013-02-01 09:55:00,52.1,47.4,30.19,North,32767,0.0,0.0,84,0.00,,,0.00,Wunderground v.1.13,2013-02-01 17:55:00,
2013-02-01 10:00:00,52.2,47.2,30.19,North,360,0.0,0.0,83,0.00,,,0.00,Wunderground v.1.13,2013-02-01 18:00:00,
2013-02-01 10:05:00,52.3,46.6,30.19,North,32767,0.0,0.0,81,0.00,,,0.00,Wunderground v.1.13,2013-02-01 18:05:00,
2013-02-01 10:15:00,52.1,45.4,30.20,North,32767,0.0,0.0,78,0.00,,,0.00,Wunderground v.1.13,2013-02-01 18:15:00,
2013-02-01 10:20:00,52.1,44.8,30.20,North,32767,0.0,0.0,76,0.00,,,0.00,Wunderground v.1.13,2013-02-01 18:20:00,
2013-02-01 10:25:00,52.2,44.5,30.19,North,32767,0.0,0.0,75,0.00,,,0.00,Wunderground v.1.13,2013-02-01 18:25:00,
2013-02-01 10:30:00,52.3,44.6,30.19,North,360,0.0,0.0,75,0.00,,,0.00,Wunderground v.1.13,2013-02-01 18:30:00,
2013-02-01 10:35:00,52.4,44.7,30.19,North,32767,0.0,0.0,75,0.00,,,0.00,Wunderground v.1.13,2013-02-01 18:35:00,
2013-02-01 10:45:00,53.1,45.0,30.19,North,32767,0.0,0.0,74,0.00,,,0.00,Wunderground v.1.13,2013-02-01 18:45:00,
2013-02-01 10:50:00,53.5,45.1,30.19,North,32767,0.0,0.0,73,0.00,,,0.00,Wunderground v.1.13,2013-02-01 18:50:00,
2013-02-01 10:55:00,53.7,44.9,30.20,North,32767,0.0,0.0,72,0.00,,,0.00,Wunderground v.1.13,2013-02-01 18:55:00,
2013-02-01 11:00:00,53.7,44.9,30.20,North,32767,0.0,0.0,72,0.00,,,0.00,Wunderground v.1.13,2013-02-01 19:00:00,
2013-02-01 11:06:00,53.8,45.0,30.20,North,32767,0.0,0.0,72,0.00,,,0.00,Wunderground v.1.13,2013-02-01 19:06:00,
2013-02-01 11:15:00,54.3,45.1,30.20,North,32767,0.0,0.0,71,0.00,,,0.00,Wunderground v.1.13,2013-02-01 19:15:00,
2013-02-01 11:20:00,54.6,45.0,30.20,North,360,0.0,0.0,70,0.00,,,0.00,Wunderground v.1.13,2013-02-01 19:20:00,
2013-02-01 11:25:00,54.8,44.8,30.19,North,32767,0.0,0.0,69,0.00,,,0.00,Wunderground v.1.13,2013-02-01 19:25:00,
2013-02-01 11:30:00,54.9,44.9,30.19,North,32767,0.0,0.0,69,0.00,,,0.00,Wunderground v.1.13,2013-02-01 19:30:00,
2013-02-01 11:35:00,55.2,44.8,30.19,North,360,0.0,0.0,68,0.00,,,0.00,Wunderground v.1.13,2013-02-01 19:35:00,
2013-02-01 11:40:00,55.5,45.1,30.19,North,32767,0.0,0.0,68,0.00,,,0.00,Wunderground v.1.13,2013-02-01 19:40:00,
2013-02-01 11:50:00,56.4,45.6,30.18,North,360,0.0,0.0,67,0.00,,,0.00,Wunderground v.1.13,2013-02-01 19:50:00,
2013-02-01 11:55:00,56.8,45.6,30.18,North,32767,0.0,0.0,66,0.00,,,0.00,Wunderground v.1.13,2013-02-01 19:55:00,
2013-02-01 12:00:00,57.3,46.0,30.18,North,360,0.0,0.0,66,0.00,,,0.00,Wunderground v.1.13,2013-02-01 20:00:00,
2013-02-01 12:06:00,57.9,46.2,30.17,North,32767,0.0,0.0,65,0.00,,,0.00,Wunderground v.1.13,2013-02-01 20:06:00,
2013-02-01 12:15:00,58.9,46.3,30.17,North,32767,0.0,0.0,63,0.00,,,0.00,Wunderground v.1.13,2013-02-01 20:15:00,
2013-02-01 12:20:00,59.0,46.0,30.16,North,360,0.0,0.0,62,0.00,,,0.00,Wunderground v.1.13,2013-02-01 20:20:00,
2013-02-01 12:25:00,59.6,46.6,30.16,North,32767,0.0,0.0,62,0.00,,,0.00,Wunderground v.1.13,2013-02-01 20:25:00,
2013-02-01 12:30:00,60.5,47.4,30.16,North,32767,0.0,0.0,62,0.00,,,0.00,Wunderground v.1.13,2013-02-01 20:30:00,
2013-02-01 12:35:00,61.5,47.9,30.16,North,360,0.0,0.0,61,0.00,,,0.00,Wunderground v.1.13,2013-02-01 20:35:00,
2013-02-01 12:40:00,62.1,47.6,30.15,North,32767,0.0,0.0,59,0.00,,,0.00,Wunderground v.1.13,2013-02-01 20:40:00,
2013-02-01 12:50:00,63.8,47.3,30.14,North,360,0.0,0.0,55,0.00,,,0.00,Wunderground v.1.13,2013-02-01 20:50:00,
2013-02-01 12:55:00,64.8,47.3,30.14,North,32767,0.0,0.0,53,0.00,,,0.00,Wunderground v.1.13,2013-02-01 20:55:00,
2013-02-01 13:00:00,65.2,48.6,30.14,North,360,0.0,0.0,55,0.00,,,0.00,Wunderground v.1.13,2013-02-01 21:00:00,
2013-02-01 13:06:00,64.8,48.2,30.14,North,32767,0.0,0.0,55,0.00,,,0.00,Wunderground v.1.13,2013-02-01 21:06:00,
2013-02-01 13:15:00,65.4,48.8,30.13,North,32767,0.0,0.0,55,0.00,,,0.00,Wunderground v.1.13,2013-02-01 21:15:00,
2013-02-01 13:25:00,65.9,48.3,30.13,North,360,0.0,0.0,53,0.00,,,0.00,Wunderground v.1.13,2013-02-01 21:25:00,
2013-02-01 13:30:00,66.1,48.0,30.13,North,360,0.0,0.0,52,0.00,,,0.00,Wunderground v.1.13,2013-02-01 21:30:00,
2013-02-01 13:35:00,66.4,48.2,30.13,North,360,0.0,0.0,52,0.00,,,0.00,Wunderground v.1.13,2013-02-01 21:35:00,
2013-02-01 13:40:00,66.7,48.5,30.13,North,32767,0.0,0.0,52,0.00,,,0.00,Wunderground v.1.13,2013-02-01 21:40:00,
2013-02-01 13:45:00,66.9,47.6,30.13,North,360,0.0,0.0,50,0.00,,,0.00,Wunderground v.1.13,2013-02-01 21:45:00,
2013-02-01 13:55:00,66.9,48.2,30.13,North,32767,0.0,0.0,51,0.00,,,0.00,Wunderground v.1.13,2013-02-01 21:55:00,
2013-02-01 14:00:00,67.2,47.9,30.12,North,32767,0.0,0.0,50,0.00,,,0.00,Wunderground v.1.13,2013-02-01 22:00:00,
2013-02-01 14:06:00,67.5,48.2,30.13,North,32767,0.0,0.0,50,0.00,,,0.00,Wunderground v.1.13,2013-02-01 22:06:00,
2013-02-01 14:15:00,68.5,48.6,30.12,North,32767,0.0,0.0,49,0.00,,,0.00,Wunderground v.1.13,2013-02-01 22:15:00,
2013-02-01 14:20:00,69.2,48.7,30.12,North,360,0.0,0.0,48,0.00,,,0.00,Wunderground v.1.13,2013-02-01 22:20:00,
2013-02-01 14:30:00,69.7,49.1,30.12,North,32767,0.0,0.0,48,0.00,,,0.00,Wunderground v.1.13,2013-02-01 22:30:00,
2013-02-01 14:35:00,69.7,49.1,30.12,North,32767,0.0,0.0,48,0.00,,,0.00,Wunderground v.1.13,2013-02-01 22:35:00,
2013-02-01 14:40:00,70.0,49.4,30.13,North,360,0.0,0.0,48,0.00,,,0.00,Wunderground v.1.13,2013-02-01 22:40:00,
2013-02-01 14:45:00,70.3,49.7,30.13,North,32767,0.0,0.0,48,0.00,,,0.00,Wunderground v.1.13,2013-02-01 22:45:00,
2013-02-01 14:55:00,70.4,49.8,30.13,North,32767,0.0,0.0,48,0.00,,,0.00,Wunderground v.1.13,2013-02-01 22:55:00,
2013-02-01 15:00:00,70.4,50.9,30.13,North,32767,0.0,0.0,50,0.00,,,0.00,Wunderground v.1.13,2013-02-01 23:00:00,
2013-02-01 15:06:00,70.7,50.0,30.12,North,360,0.0,0.0,48,0.00,,,0.00,Wunderground v.1.13,2013-02-01 23:06:00,
2013-02-01 15:15:00,70.8,49.0,30.12,North,360,0.0,0.0,46,0.00,,,0.00,Wunderground v.1.13,2013-02-01 23:15:00,
2013-02-01 15:20:00,70.4,49.2,30.12,North,360,0.0,0.0,47,0.00,,,0.00,Wunderground v.1.13,2013-02-01 23:20:00,
2013-02-01 15:25:00,69.4,48.9,30.11,North,32767,0.0,0.0,48,0.00,,,0.00,Wunderground v.1.13,2013-02-01 23:25:00,
2013-02-01 15:35:00,67.5,48.7,30.11,North,360,0.0,0.0,51,0.00,,,0.00,Wunderground v.1.13,2013-02-01 23:35:00,
2013-02-01 15:40:00,67.0,48.3,30.11,North,32767,0.0,0.0,51,0.00,,,0.00,Wunderground v.1.13,2013-02-01 23:40:00,
2013-02-01 15:45:00,66.7,48.0,30.12,North,32767,0.0,0.0,51,0.00,,,0.00,Wunderground v.1.13,2013-02-01 23:45:00,
2013-02-01 15:50:00,66.6,48.4,30.11,North,360,0.0,0.0,52,0.00,,,0.00,Wunderground v.1.13,2013-02-01 23:50:00,
2013-02-01 16:00:00,66.3,48.7,30.11,North,360,0.0,0.0,53,0.00,,,0.00,Wunderground v.1.13,2013-02-02 00:00:00,
2013-02-01 16:05:00,66.2,48.0,30.12,North,32767,0.0,0.0,52,0.00,,,0.00,Wunderground v.1.13,2013-02-02 00:05:00,
2013-02-01 16:15:00,65.9,48.3,30.11,North,32767,0.0,0.0,53,0.00,,,0.00,Wunderground v.1.13,2013-02-02 00:15:00,
2013-02-01 16:20:00,65.8,48.2,30.12,North,360,0.0,0.0,53,0.00,,,0.00,Wunderground v.1.13,2013-02-02 00:20:00,
2013-02-01 16:25:00,65.6,48.5,30.12,North,360,0.0,0.0,54,0.00,,,0.00,Wunderground v.1.13,2013-02-02 00:25:00,
2013-02-01 16:35:00,65.3,48.2,30.11,North,360,0.0,0.0,54,0.00,,,0.00,Wunderground v.1.13,2013-02-02 00:35:00,
2013-02-01 16:40:00,65.1,48.0,30.11,North,32767,0.0,0.0,54,0.00,,,0.00,Wunderground v.1.13,2013-02-02 00:40:00,
2013-02-01 16:45:00,64.8,48.2,30.11,North,32767,0.0,0.0,55,0.00,,,0.00,Wunderground v.1.13,2013-02-02 00:45:00,
2013-02-01 16:50:00,64.5,48.0,30.11,North,360,0.0,0.0,55,0.00,,,0.00,Wunderground v.1.13,2013-02-02 00:50:00,
2013-02-01 17:00:00,63.8,48.7,30.12,North,32767,0.0,0.0,58,0.00,,,0.00,Wunderground v.1.13,2013-02-02 01:00:00,
2013-02-01 17:05:00,63.3,48.7,30.12,North,32767,0.0,0.0,59,0.00,,,0.00,Wunderground v.1.13,2013-02-02 01:05:00,
2013-02-01 17:15:00,62.4,47.9,30.12,North,32767,0.0,0.0,59,0.00,,,0.00,Wunderground v.1.13,2013-02-02 01:15:00,
2013-02-01 17:20:00,61.9,47.9,30.12,North,360,0.0,0.0,60,0.00,,,0.00,Wunderground v.1.13,2013-02-02 01:20:00,
2013-02-01 17:25:00,61.3,47.3,30.12,North,32767,0.0,0.0,60,0.00,,,0.00,Wunderground v.1.13,2013-02-02 01:25:00,
2013-02-01 17:30:00,60.7,47.2,30.13,North,32767,0.0,0.0,61,0.00,,,0.00,Wunderground v.1.13,2013-02-02 01:30:00,
2013-02-01 17:40:00,59.7,46.7,30.13,North,32767,0.0,0.0,62,0.00,,,0.00,Wunderground v.1.13,2013-02-02 01:40:00,
2013-02-01 17:45:00,59.0,46.4,30.14,North,32767,0.0,0.0,63,0.00,,,0.00,Wunderground v.1.13,2013-02-02 01:45:00,
2013-02-01 17:50:00,58.7,46.1,30.14,North,32767,0.0,0.0,63,0.00,,,0.00,Wunderground v.1.13,2013-02-02 01:50:00,
2013-02-01 17:55:00,58.0,45.9,30.14,North,32767,0.0,0.0,64,0.00,,,0.00,Wunderground v.1.13,2013-02-02 01:55:00,
2013-02-01 18:05:00,56.8,45.6,30.15,North,32767,0.0,0.0,66,0.00,,,0.00,Wunderground v.1.13,2013-02-02 02:05:00,
2013-02-01 18:15:00,55.9,45.1,30.15,North,32767,0.0,0.0,67,0.00,,,0.00,Wunderground v.1.13,2013-02-02 02:15:00,
2013-02-01 18:20:00,55.4,45.0,30.15,North,32767,0.0,0.0,68,0.00,,,0.00,Wunderground v.1.13,2013-02-02 02:20:00,
2013-02-01 18:25:00,55.0,45.0,30.16,North,32767,0.0,0.0,69,0.00,,,0.00,Wunderground v.1.13,2013-02-02 02:25:00,
2013-02-01 18:30:00,54.6,44.6,30.16,North,32767,0.0,0.0,69,0.00,,,0.00,Wunderground v.1.13,2013-02-02 02:30:00,
2013-02-01 18:35:00,54.3,44.7,30.16,North,32767,0.0,0.0,70,0.00,,,0.00,Wunderground v.1.13,2013-02-02 02:35:00,
2013-02-01 18:45:00,53.5,44.3,30.16,North,32767,0.0,0.0,71,0.00,,,0.00,Wunderground v.1.13,2013-02-02 02:45:00,
2013-02-01 18:50:00,53.2,44.0,30.16,North,360,0.0,0.0,71,0.00,,,0.00,Wunderground v.1.13,2013-02-02 02:50:00,
2013-02-01 18:55:00,52.9,44.1,30.17,North,32767,0.0,0.0,72,0.00,,,0.00,Wunderground v.1.13,2013-02-02 02:55:00,
2013-02-01 19:00:00,52.6,43.8,30.17,North,32767,0.0,0.0,72,0.00,,,0.00,Wunderground v.1.13,2013-02-02 03:00:00,
2013-02-01 19:06:00,52.2,43.4,30.17,North,32767,0.0,0.0,72,0.00,,,0.00,Wunderground v.1.13,2013-02-02 03:06:00,
2013-02-01 19:15:00,51.7,43.3,30.18,North,32767,0.0,0.0,73,0.00,,,0.00,Wunderground v.1.13,2013-02-02 03:15:00,
2013-02-01 19:20:00,51.5,43.1,30.18,North,360,0.0,0.0,73,0.00,,,0.00,Wunderground v.1.13,2013-02-02 03:20:00,
2013-02-01 19:25:00,51.2,43.2,30.18,North,32767,0.0,0.0,74,0.00,,,0.00,Wunderground v.1.13,2013-02-02 03:25:00,
2013-02-01 19:30:00,51.0,43.0,30.18,North,32767,0.0,0.0,74,0.00,,,0.00,Wunderground v.1.13,2013-02-02 03:30:00,
2013-02-01 19:35:00,50.7,43.1,30.18,North,360,0.0,0.0,75,0.00,,,0.00,Wunderground v.1.13,2013-02-02 03:35:00,
2013-02-01 19:40:00,50.5,42.9,30.18,North,32767,0.0,0.0,75,0.00,,,0.00,Wunderground v.1.13,2013-02-02 03:40:00,
2013-02-01 19:50:00,50.2,42.9,30.17,North,360,0.0,0.0,76,0.00,,,0.00,Wunderground v.1.13,2013-02-02 03:50:00,
2013-02-01 19:55:00,50.0,42.7,30.17,North,32767,0.0,0.0,76,0.00,,,0.00,Wunderground v.1.13,2013-02-02 03:55:00,
2013-02-01 20:00:00,49.9,42.6,30.17,North,360,0.0,0.0,76,0.00,,,0.00,Wunderground v.1.13,2013-02-02 04:00:00,
2013-02-01 20:06:00,49.9,42.6,30.17,North,32767,0.0,0.0,76,0.00,,,0.00,Wunderground v.1.13,2013-02-02 04:06:00,
2013-02-01 20:15:00,50.1,42.8,30.17,North,32767,0.0,0.0,76,0.00,,,0.00,Wunderground v.1.13,2013-02-02 04:15:00,
2013-02-01 20:20:00,50.1,42.5,30.17,North,360,0.0,0.0,75,0.00,,,0.00,Wunderground v.1.13,2013-02-02 04:20:00,
2013-02-01 20:25:00,50.2,42.6,30.17,North,32767,0.0,0.0,75,0.00,,,0.00,Wunderground v.1.13,2013-02-02 04:25:00,
2013-02-01 20:30:00,50.2,42.6,30.17,North,32767,0.0,0.0,75,0.00,,,0.00,Wunderground v.1.13,2013-02-02 04:30:00,
2013-02-01 20:35:00,50.3,42.7,30.18,North,32767,0.0,0.0,75,0.00,,,0.00,Wunderground v.1.13,2013-02-02 04:35:00,
2013-02-01 20:40:00,50.2,42.6,30.18,North,32767,0.0,0.0,75,0.00,,,0.00,Wunderground v.1.13,2013-02-02 04:40:00,
2013-02-01 20:50:00,50.0,42.4,30.18,North,360,0.0,0.0,75,0.00,,,0.00,Wunderground v.1.13,2013-02-02 04:50:00,
2013-02-01 20:55:00,49.9,42.3,30.18,North,32767,0.0,0.0,75,0.00,,,0.00,Wunderground v.1.13,2013-02-02 04:55:00,
2013-02-01 21:00:00,49.7,42.1,30.17,North,360,0.0,0.0,75,0.00,,,0.00,Wunderground v.1.13,2013-02-02 05:00:00,
2013-02-01 21:05:00,49.4,41.8,30.18,North,32767,0.0,0.0,75,0.00,,,0.00,Wunderground v.1.13,2013-02-02 05:05:00,
2013-02-01 21:15:00,49.1,41.9,30.18,North,32767,0.0,0.0,76,0.00,,,0.00,Wunderground v.1.13,2013-02-02 05:15:00,
2013-02-01 21:20:00,48.9,41.7,30.18,North,360,0.0,0.0,76,0.00,,,0.00,Wunderground v.1.13,2013-02-02 05:20:00,
2013-02-01 21:25:00,48.8,41.6,30.18,North,32767,0.0,0.0,76,0.00,,,0.00,Wunderground v.1.13,2013-02-02 05:25:00,
2013-02-01 21:30:00,48.7,41.5,30.19,North,360,0.0,0.0,76,0.00,,,0.00,Wunderground v.1.13,2013-02-02 05:30:00,
2013-02-01 21:35:00,48.5,41.6,30.19,North,32767,0.0,0.0,77,0.00,,,0.00,Wunderground v.1.13,2013-02-02 05:35:00,
2013-02-01 21:45:00,48.2,41.3,30.19,North,360,0.0,0.0,77,0.00,,,0.00,Wunderground v.1.13,2013-02-02 05:45:00,
2013-02-01 21:50:00,48.1,41.6,30.20,North,32767,0.0,0.0,78,0.00,,,0.00,Wunderground v.1.13,2013-02-02 05:50:00,
2013-02-01 21:55:00,47.9,41.4,30.20,North,32767,0.0,0.0,78,0.00,,,0.00,Wunderground v.1.13,2013-02-02 05:55:00,
2013-02-01 22:00:00,47.8,41.3,30.20,North,360,0.0,0.0,78,0.00,,,0.00,Wunderground v.1.13,2013-02-02 06:00:00,
2013-02-01 22:05:00,47.6,41.1,30.19,North,32767,0.0,0.0,78,0.00,,,0.00,Wunderground v.1.13,2013-02-02 06:05:00,
2013-02-01 22:15:00,47.4,41.2,30.19,North,360,0.0,0.0,79,0.00,,,0.00,Wunderground v.1.13,2013-02-02 06:15:00,
2013-02-01 22:20:00,47.3,41.1,30.19,North,32767,0.0,0.0,79,0.00,,,0.00,Wunderground v.1.13,2013-02-02 06:20:00,
2013-02-01 22:25:00,47.1,40.9,30.20,North,32767,0.0,0.0,79,0.00,,,0.00,Wunderground v.1.13,2013-02-02 06:25:00,
2013-02-01 22:30:00,47.0,40.8,30.20,North,360,0.0,0.0,79,0.00,,,0.00,Wunderground v.1.13,2013-02-02 06:30:00,
2013-02-01 22:35:00,46.9,40.7,30.20,North,32767,0.0,0.0,79,0.00,,,0.00,Wunderground v.1.13,2013-02-02 06:35:00,
2013-02-01 22:45:00,46.7,40.9,30.19,North,32767,0.0,0.0,80,0.00,,,0.00,Wunderground v.1.13,2013-02-02 06:45:00,
2013-02-01 22:50:00,46.5,40.7,30.19,North,32767,0.0,0.0,80,0.00,,,0.00,Wunderground v.1.13,2013-02-02 06:50:00,
2013-02-01 22:55:00,46.4,40.6,30.20,North,360,0.0,0.0,80,0.00,,,0.00,Wunderground v.1.13,2013-02-02 06:55:00,
2013-02-01 23:00:00,46.3,40.5,30.20,North,32767,0.0,0.0,80,0.00,,,0.00,Wunderground v.1.13,2013-02-02 07:00:00,
2013-02-01 23:06:00,46.1,40.6,30.20,North,32767,0.0,0.0,81,0.00,,,0.00,Wunderground v.1.13,2013-02-02 07:06:00,
2013-02-01 23:15:00,45.9,40.4,30.20,North,32767,0.0,0.0,81,0.00,,,0.00,Wunderground v.1.13,2013-02-02 07:15:00,
2013-02-01 23:20:00,45.7,40.2,30.20,North,360,0.0,0.0,81,0.00,,,0.00,Wunderground v.1.13,2013-02-02 07:20:00,
2013-02-01 23:25:00,45.6,40.4,30.20,North,32767,0.0,0.0,82,0.00,,,0.00,Wunderground v.1.13,2013-02-02 07:25:00,
2013-02-01 23:30:00,45.4,40.2,30.20,North,360,0.0,0.0,82,0.00,,,0.00,Wunderground v.1.13,2013-02-02 07:30:00,
2013-02-01 23:35:00,45.3,40.1,30.20,North,32767,0.0,0.0,82,0.00,,,0.00,Wunderground v.1.13,2013-02-02 07:35:00,
2013-02-01 23:40:00,45.1,39.9,30.20,North,32767,0.0,0.0,82,0.00,,,0.00,Wunderground v.1.13,2013-02-02 07:40:00,
2013-02-01 23:50:00,45.0,39.8,30.21,North,360,0.0,0.0,82,0.00,,,0.00,Wunderground v.1.13,2013-02-02 07:50:00,
2013-02-01 23:55:00,45.0,39.8,30.21,North,32767,0.0,0.0,82,0.00,,,0.00,Wunderground v.1.13,2013-02-02 07:55:00,